Regional Weather Roundup
Issued by NWS

Home | Current Version | Previous Version | Text Only | Print | Product List | Glossary Off
Versions: 1 2 3 4 5 6 7 8 9 10 11 12 13 14 15 16 17 18 19 20 21 22 23 24 25 26 27 28 29 30 31 32 33 34 35 36 37 38 39 40 41 42 43 44 45 46 47 48 49 50

000
ASUS44 KMEG 270910
RWRTN
TENNESSEE HOURLY STATE WEATHER ROUNDUP
NATIONAL WEATHER SERVICE MEMPHIS TN
400 AM CDT WED MAY 27 2015

TNZ002-004-019-021-049-052-054-088>092-271000-
WEST TENNESSEE

CITY           SKY/WX    TMP DP  RH WIND       PRES   REMARKS
MEMPHIS INTL   MOCLDY    72  67  84 S12       30.07S
NWS MEMPHIS      N/A    N/A N/A N/A MISG        N/A
JACKSON        MOCLDY    69  65  86 S6        30.08S
DYERSBURG      PTCLDY    66  52  59 CALM      30.07R
PARIS          CLEAR     63  63 100 S3        30.09R
LEXINGTON      CLEAR     66  66 100 S5        30.09S
$$

TNZ008-025-027-028-033-062-065-066-271000-
NORTH MIDDLE TENNESSEE

CITY           SKY/WX    TMP DP  RH WIND       PRES   REMARKS
NASHVILLE      CLOUDY    70  68  93 S7        30.13R
CLARKSVILLE    PTCLDY    64  63  96 S5        30.08S
SMYRNA         CLOUDY    69  67  93 CALM      30.15R
COOKEVILLE     CLEAR     64  64 100 S3        30.16R
CROSSVILLE     PTCLDY    64  61  90 VRB3      30.20R
$$

TNZ061-075-076-078-094-096-097-271000-
SOUTH MIDDLE TENNESSEE

CITY           SKY/WX    TMP DP  RH WIND       PRES   REMARKS
FAYETTEVILLE   CLOUDY   N/A N/A N/A MISG      30.17R
TULLAHOMA      CLOUDY    66  64  94 S6        30.19R
WINCHESTER     CLOUDY    66  64  94 S3        30.18R
MCMINNVILLE    CLEAR     64  64 100 SW5       30.17R
COLUMBIA       CLOUDY    72  68  88 S7        30.12S
SHELBYVILLE    MOCLDY    66  66 100 S6        30.17R
$$

TNZ017-018-042-046-047-271000-
NORTHEAST TENNESSEE

CITY           SKY/WX    TMP DP  RH WIND       PRES   REMARKS
TRI CITIES     PTCLDY    65  64  97 CALM      30.19R FOG
ELIZABETHTON   SUNNY     61  61 100 CALM      30.20S
$$

TNZ012-013-036-069-073-074-271000-
CENTRAL EAST TENNESSEE

CITY           SKY/WX    TMP DP  RH WIND       PRES   REMARKS
KNOXVILLE      PTCLDY    66  62  87 SW8       30.17S
OAK RIDGE      CLOUDY    68  63  84 VRB3      30.19R
GATLINBURG     CLOUDY    63  61  94 CALM      30.17S
MORRISTOWN     CLOUDY    70  63  78 W7        30.19S
$$

TNZ083-085-099-271000-
SOUTHEAST TENNESSEE

CITY           SKY/WX    TMP DP  RH WIND       PRES   REMARKS
CHATTANOOGA    CLOUDY    67  64  90 S3        30.19R
$$

SKY/WX REPORTED AS FAIR MEANS FEW OR NO CLOUDS BELOW
12 THOUSAND FEET.



USA.gov is the U.S. government's official web portal to all federal, state and local government web resources and services.